AirNav   Phillips 66 Aviation Fuel
 
 970 users online  

A13 Bold Airport
Anchorage, Alaska, USA

GOING TO ANCHORAGE?


FAA INFORMATION EFFECTIVE 29 MARCH 2018

Location

FAA Identifier: A13
Lat/Long: 61-20-28.8200N / 148-59-55.9700W
61-20.480333N / 148-59.932833W
61.3413389 / -148.9988806
(estimated)
Elevation: 900 ft. / 274 m (estimated)
Variation: 25E (1985)
From city: 30 miles ENE of ANCHORAGE, AK
Time zone: UTC -8 (UTC -9 during Standard Time)
Zip code: 99567

Airport Operations

Airport use: Open to the public
Activation date: 08/1990
Control tower: no
ARTCC: ANCHORAGE CENTER
FSS: KENAI FLIGHT SERVICE STATION [907-283-8469]
NOTAMs facility: ENA (NOTAM-D service available)
Attendance: UNATNDD
Wind indicator: yes, TREES GROWING UP AROUND WINDSOCK; WIND INDICATOR UNRELIABLE.
Segmented circle: no

Airport Communications

CTAF: 122.9
WX AWOS-3P at BCV (15 nm W): 135.55 (907-688-0826)
WX ASOS at PAQ (15 nm N): 134.75 (907-746-6675)
WX AWOS-3 at FRN (19 nm W): 118.525 (907-384-0132)

Nearby radio navigation aids

VOR radial/distance  VOR name  Freq  Var
TEDr051/29.6ANCHORAGE VOR/DME113.1518E
BGQr097/31.0BIG LAKE VORTAC112.5019E

 
NDB name  Hdg/Dist  Freq  Var  ID
CAMPBELL LAKE055/31.933816ECMQ -.-. -- --.-

Airport Services

Parking: tiedowns

Runway Information

Runway 14/32

Dimensions: 1000 x 15 ft. / 305 x 5 m
Surface: gravel, in poor condition
RY 14/32 RUTTED AND UNEVEN. TREES ENCROACHING ON BOTH SIDES OF RY.
RY 14/32 SLOPES DOWN TOWARD LAKE. RY 14 GENTLE HUMP APPROACH END.
RUNWAY 14  RUNWAY 32
Traffic pattern: leftleft
Obstructions: none27 ft. trees, 37 ft. left and right of centerline

Airport Ownership and Management from official FAA records

Ownership: Publicly-owned
Owner: STATE OF AK DNR
18620 SEWARD HWY
ANCHORAGE, AK 99516
Phone 907-688-0910
Manager: KEITH WILSON, PARK RANGER
DNR, DIV OF PARKS & OUTDOOR REC, 18620 SEWARD HWY
ANCHORAGE, AK 99516
Phone 907-688-0910

Airport Operational Statistics

Aircraft operations: 200/year *
100% transient general aviation
* for 12-month period ending 31 December 2013

Additional Remarks

AIRSTRIP LOCATED INSIDE CHUGACH STATE PARK.
HIKERS & VEHICLES INVOF AIRSTRIP.
SHARPLY RISING TERRAIN EAST; SOUTH & WEST QUADRANTS.
LANDINGS NOT ALLOWED ON LAKE.
BRUSH UP TO 30 INCHES HIGH ON NE HALF OF RWY, FULL LENGTH.

Instrument Procedures

There are no published instrument procedures at A13.

Some nearby airports with instrument procedures:

PAAQ - Palmer Buddy Woods Municipal Airport (15 nm N)
PAFR - Bryant Army Airfield Heliport (19 nm W)
PAWS - Wasilla Airport (21 nm NW)
PAED - Elmendorf Air Force Base (24 nm W)
PAMR - Merrill Field Airport (26 nm W)
 
Loc | Ops | Rwys | IFR | FBO | Links
Com | Nav | Svcs | Stats | Notes

Crowley
 
Area around A13 (Bold Airport)
 
Road maps at: MapQuest Bing Google
 
Aerial photo
WARNING: Photo may not be current or correct
Aerial photo of A13 (Bold Airport)
Photo by Brian Kellogg

Do you have a better or more recent aerial photo of Bold Airport that you would like to share? If so, please send us your photo.

 
Sectional chart

 
Airport distance calculator
Flying to Bold Airport? Find the distance to fly.

From to A13

Sunrise and sunset
Times for 22-Apr-2018
 Local
(UTC-8)
 Zulu
(UTC)
Morning civil twilight05:2113:21
Sunrise06:1314:13
Sunset21:3605:36
Evening civil twilight22:2806:28

Current date and time
Zulu (UTC)  22-Apr-2018 21:55:06
Local (UTC-8)  22-Apr-2018 13:55:06
 
METAR
PABV 
16nm W 
222056Z AUTO 04014G22KT 10SM BKN080 08/00 A2975 RMK AO2 SLP082 T00780000 56017 $
PAAQ 
16nm N 
222053Z 14015KT 10SM CLR 08/01 A2977 RMK AO2 SLP084 T00780006 56015
PAFR 
19nm W 
222058Z AUTO 25004KT 10SM SCT065 BKN080 BKN160 06/M01 A2972 RMK AO2 SLP072 T00601010 57014 $
PAED 
24nm W 
222056Z AUTO 00000KT 10SM BKN080 05/00 A2975 RMK AO2 SLP071 T00521004 57013 $
PAMR 
26nm W 
222053Z 22004KT 10SM OVC080 06/00 A2975 RMK AO2 SLP077 T00610000 56014
PALH 
29nm W 
222053Z 27003KT 10SM OVC070 06/M01 A2976 RMK AO2 SLP080 T00561011 56014
TAF
PAAQ 
16nm N 
221745Z 2218/2318 04010KT P6SM BKN120 TEMPO 2220/2223 12015G20KT FM222300 12015G20KT P6SM FEW050 BKN080 FM230900 04008KT P6SM VCSH BKN060
NOTAMs
Click for the latest NOTAMs
NOTAMs are issued by the DoD/FAA and will open in a separate window not controlled by AirNav.

 

 
 

Would you like to see your business listed on this page?

 If your business provides an interesting product or service to pilots, flight crews, aircraft, or users of the Bold Airport, you should consider listing it here.  To start the listing process, click on the button below
 
Add a business
 

Other Pages about Bold Airport

Update a link
 
Copyright © AirNav, LLC. All rights reserved. Privacy Policy  Contact